Weather History for Keahole Point, HI

Change the Weather History Date:

Sunday, June 1, 2014

  Actual Average Record
Temperature  
Mean Temperature 80 °F -  
Max Temperature 84 °F 81 °F 90 °F (1983)
Min Temperature 75 °F 72 °F 68 °F (1993)
Cooling Degree Days 14    
Growing Degree Days 30 (Base 50)    
Moisture  
Dew Point 69 °F    
Average Humidity 67    
Maximum Humidity 82    
Minimum Humidity 58    
Precipitation  
Precipitation 0.00 in - - ()
Sea Level Pressure  
Sea Level Pressure 29.96 in    
Wind  
Wind Speed 8 mph (West)    
Max Wind Speed 15 mph    
Max Gust Speed -    
Visibility 10 miles    
Events      
Averages and records for this station are not official NWS values.
T = Trace of Precipitation, MM = Missing Value Source: NWS Daily Summary

Daily Weather History Graph

Daily Weather History Graph

Search for Another Location

Airport:

Trip Planner

Search our weather history database for the weather conditions in past years. The results will help you decide how hot, cold, wet, or windy it might be!

Date:

Astronomy

Jun. 01, 2014 Rise Set
Actual Time 5:44 AM HST 6:59 PM HST
Civil Twilight 5:20 AM HST 7:23 PM HST
Nautical Twilight 4:51 AM HST 7:52 PM HST
Astronomical Twilight 4:22 AM HST 8:22 PM HST
Moon 9:11 AM HST (6/1) 10:19 PM HST (6/1)
Length of Visible Light 14h 03m
Length of Day
13h 14m
Waxing Crescent, 16% of the Moon is Illuminated
Jun 1
Waxing Crescent
Jun 5
First Quarter
Jun 12
Full
Jun 19
Last Quarter
Jun 26
New

Hourly Weather History & Observations

Time (HST) Temp. Heat Index Dew Point Humidity Pressure Visibility Wind Dir Wind Speed Gust Speed Precip Events Conditions
12:53 AM 79.0 °F - 69.1 °F 72% 29.98 in 10.0 mi WSW 10.4 mph - N/A   Mostly Cloudy
1:53 AM 78.1 °F - 69.1 °F 74% 29.97 in 10.0 mi WSW 8.1 mph - N/A   Clear
2:53 AM 78.1 °F - 69.1 °F 74% 29.97 in 10.0 mi West 8.1 mph - N/A   Scattered Clouds
3:46 AM 77.0 °F - 69.8 °F 78% 29.96 in 10.0 mi Calm Calm - N/A   Overcast
3:53 AM 78.1 °F - 69.1 °F 74% 29.96 in 10.0 mi Calm Calm - N/A   Overcast
4:48 AM 78.8 °F - 69.8 °F 74% 29.96 in 10.0 mi Calm Calm - N/A   Mostly Cloudy
4:53 AM 78.1 °F - 69.1 °F 74% 29.97 in 10.0 mi Calm Calm - N/A   Scattered Clouds
5:53 AM 75.0 °F - 69.1 °F 82% 29.97 in 10.0 mi Calm Calm - N/A   Scattered Clouds
6:53 AM 78.1 °F - 68.0 °F 71% 29.99 in 10.0 mi East 3.5 mph - N/A   Clear
7:53 AM 80.1 °F 82.7 °F 68.0 °F 67% 29.99 in 10.0 mi Calm Calm - N/A   Clear
8:53 AM 81.0 °F 84.1 °F 69.1 °F 67% 30.00 in 10.0 mi WSW 6.9 mph - N/A   Clear
9:53 AM 82.9 °F 85.4 °F 66.9 °F 58% 30.00 in 10.0 mi West 4.6 mph - N/A   Clear
10:53 AM 82.9 °F 86.5 °F 69.1 °F 63% 29.99 in 10.0 mi WNW 4.6 mph - N/A   Scattered Clouds
11:53 AM 82.9 °F 86.5 °F 69.1 °F 63% 29.97 in 10.0 mi WNW 6.9 mph - N/A   Partly Cloudy
12:24 PM 84.2 °F 88.4 °F 69.8 °F 62% 29.96 in 10.0 mi WNW 8.1 mph - N/A   Partly Cloudy
12:44 PM 84.2 °F 88.4 °F 69.8 °F 62% 29.96 in 10.0 mi West 10.4 mph - N/A   Mostly Cloudy
12:51 PM 84.2 °F 88.4 °F 69.8 °F 62% 29.96 in 10.0 mi WNW 11.5 mph - N/A   Scattered Clouds
12:53 PM 84.0 °F 88.4 °F 70.0 °F 63% 29.96 in 10.0 mi WNW 11.5 mph - N/A   Scattered Clouds
1:00 PM 84.2 °F 88.4 °F 69.8 °F 62% 29.96 in 10.0 mi WNW 12.7 mph - N/A   Overcast
1:17 PM 84.2 °F 88.4 °F 69.8 °F 62% 29.95 in 10.0 mi WNW 11.5 mph - N/A   Overcast
1:53 PM 84.0 °F 88.4 °F 70.0 °F 63% 29.95 in 10.0 mi WNW 11.5 mph - N/A   Overcast
2:04 PM 84.2 °F 89.6 °F 71.6 °F 66% 29.94 in 10.0 mi WNW 11.5 mph - N/A   Overcast
2:53 PM 84.9 °F 88.8 °F 69.1 °F 59% 29.93 in 10.0 mi WNW 13.8 mph - N/A   Overcast
3:00 PM 84.2 °F 88.4 °F 69.8 °F 62% 29.93 in 10.0 mi NW 13.8 mph - N/A   Overcast
3:53 PM 84.0 °F 89.0 °F 71.1 °F 65% 29.92 in 10.0 mi WNW 15.0 mph - N/A   Overcast
3:57 PM 84.2 °F 88.4 °F 69.8 °F 62% 29.92 in 10.0 mi WNW 13.8 mph - N/A   Overcast
4:53 PM 82.9 °F 87.0 °F 70.0 °F 65% 29.91 in 10.0 mi West 15.0 mph - N/A   Mostly Cloudy
5:53 PM 82.0 °F 85.5 °F 69.1 °F 65% 29.92 in 10.0 mi WSW 11.5 mph - N/A   Overcast
6:53 PM 81.0 °F 83.8 °F 68.0 °F 65% 29.93 in 10.0 mi South 9.2 mph - N/A   Overcast
7:53 PM 81.0 °F 83.8 °F 68.0 °F 65% 29.94 in 10.0 mi SE 12.7 mph - N/A   Overcast
8:53 PM 80.1 °F 82.3 °F 66.9 °F 64% 29.95 in 10.0 mi SE 11.5 mph - N/A   Scattered Clouds
9:53 PM 79.0 °F - 66.9 °F 66% 29.96 in 10.0 mi SE 10.4 mph - N/A   Partly Cloudy
10:53 PM 78.1 °F - 66.0 °F 66% 29.97 in 10.0 mi SE 9.2 mph - N/A   Scattered Clouds
11:53 PM 78.1 °F - 66.9 °F 68% 29.97 in 10.0 mi ESE 4.6 mph - N/A   Scattered Clouds